Merrill, WI

10:28 AM CST on December 07, 2016 (GMT -0600)
Merrill Municipal

Weather History for KRRL - September, 2013

Change the Weather History Date:

Saturday, September 14, 2013

  Actual Average Record
Temperature  
Mean Temperature 50 °F -  
Max Temperature 69 °F 69 °F 91 °F (1927)
Min Temperature 32 °F 45 °F 25 °F (1923)
Degree Days  
Heating Degree Days 14    
Moisture  
Dew Point 43 °F    
Average Humidity 75    
Maximum Humidity 100    
Minimum Humidity 42    
Precipitation  
Precipitation 0.03 in - - ()
Sea Level Pressure  
Sea Level Pressure 30.06 in    
Wind  
Wind Speed 3 mph (SW)    
Max Wind Speed 14 mph    
Max Gust Speed 20 mph    
Visibility 9 miles    
Events Fog , Rain    
Averages and records for this station are not official NWS values.
T = Trace of Precipitation, MM = Missing Value Source: NWS Daily Summary

Daily Weather History Graph

Daily Weather History Graph

Search for Another Location

Airport or City:

Trip Planner

Search our weather history database for the weather conditions in past years. The results will help you decide how hot, cold, wet, or windy it might be!

Date:

Astronomy

Sep. 14, 2013 Rise Set
Actual Time 6:36 AM CDT 7:11 PM CDT
Civil Twilight 6:06 AM CDT 7:40 PM CDT
Nautical Twilight 5:31 AM CDT 8:15 PM CDT
Astronomical Twilight 4:55 AM CDT 8:52 PM CDT
Moon 4:02 PM CDT (9/14) 12:56 AM CDT (9/14)
Length of Visible Light 13h 33m
Length of Day
12h 34m
Waxing Gibbous, 72% of the Moon is Illuminated
Sep 14
Waxing Gibbous
Sep 19
Full
Sep 26
Last Quarter
Oct 4
New
Oct 11
First Quarter

Hourly Weather History & Observations

Time (CDT) Temp. Dew Point Humidity Pressure Visibility Wind Dir Wind Speed Gust Speed Precip Events Conditions
12:15 AM 37.4 °F 36.7 °F 97% 30.12 in 10.0 mi Calm Calm - N/A   Clear
12:35 AM 36.5 °F 35.6 °F 97% 30.13 in 7.0 mi Calm Calm - N/A   Clear
12:55 AM 37.6 °F 37.4 °F 99% 30.13 in 5.0 mi Calm Calm - N/A   Scattered Clouds
1:15 AM 36.5 °F 35.8 °F 97% 30.14 in 10.0 mi Calm Calm - N/A   Clear
1:35 AM 36.9 °F 35.6 °F 95% 30.13 in 10.0 mi Calm Calm - N/A   Clear
1:55 AM 35.4 °F 35.1 °F 99% 30.13 in 10.0 mi Calm Calm - N/A   Clear
2:15 AM 34.9 °F 34.3 °F 98% 30.13 in 2.5 mi Calm Calm - N/A   Clear
2:35 AM 35.1 °F 35.1 °F 100% 30.12 in 0.2 mi Calm Calm - N/A Fog Fog
2:55 AM 34.2 °F 34.2 °F 100% 30.12 in 0.2 mi Calm Calm - N/A Fog Fog
3:15 AM 34.2 °F 34.2 °F 100% 30.12 in 2.0 mi Calm Calm - N/A   Clear
3:35 AM 34.0 °F 34.0 °F 100% 30.12 in 1.5 mi Calm Calm - N/A   Mist
3:55 AM 33.6 °F 33.6 °F 100% 30.12 in 0.2 mi Calm Calm - N/A Fog Fog
4:15 AM 34.2 °F 34.2 °F 100% 30.12 in 2.0 mi Calm Calm - N/A   Scattered Clouds
4:35 AM 34.3 °F 34.3 °F 100% 30.11 in 1.8 mi Calm Calm - N/A   Mist
4:55 AM 33.1 °F 32.9 °F 99% 30.12 in 4.0 mi Calm Calm - N/A   Clear
5:15 AM 32.9 °F 32.4 °F 98% 30.12 in 10.0 mi Calm Calm - N/A   Clear
5:35 AM 32.9 °F 32.5 °F 99% 30.13 in 10.0 mi Calm Calm - N/A   Clear
5:55 AM 32.0 °F 31.6 °F 99% 30.13 in 10.0 mi Calm Calm - N/A   Clear
6:15 AM 32.0 °F 32.0 °F 100% 30.13 in 10.0 mi Calm Calm - N/A   Clear
6:35 AM 32.4 °F 32.0 °F 99% 30.12 in 10.0 mi Calm Calm - N/A   Clear
6:55 AM 32.0 °F 32.0 °F 100% 30.12 in 1.0 mi Calm Calm - N/A   Mist
7:15 AM 34.0 °F 34.0 °F 100% 30.12 in 10.0 mi Calm Calm - N/A   Clear
7:35 AM 36.3 °F 35.8 °F 98% 30.12 in 10.0 mi Calm Calm - N/A   Clear
7:55 AM 40.6 °F 40.3 °F 99% 30.13 in 10.0 mi Calm Calm - N/A   Clear
8:15 AM 44.1 °F 42.3 °F 93% 30.13 in 10.0 mi Calm Calm - N/A   Clear
8:35 AM 47.7 °F 43.5 °F 86% 30.12 in 10.0 mi SW 8.1 mph - N/A   Clear
8:55 AM 50.2 °F 43.7 °F 78% 30.12 in 10.0 mi SW 5.8 mph - N/A   Clear
9:15 AM 52.3 °F 44.1 °F 73% 30.12 in 10.0 mi SW 8.1 mph - N/A   Clear
9:35 AM 55.9 °F 43.9 °F 64% 30.12 in 10.0 mi SW 6.9 mph - N/A   Clear
9:55 AM 57.2 °F 43.9 °F 61% 30.11 in 10.0 mi SW 6.9 mph - N/A   Clear
10:15 AM 59.2 °F 44.8 °F 59% 30.11 in 10.0 mi WSW 6.9 mph - N/A   Clear
10:35 AM 60.3 °F 45.1 °F 57% 30.10 in 10.0 mi WSW 9.2 mph - N/A   Clear
10:55 AM 61.3 °F 45.1 °F 55% 30.10 in 10.0 mi WSW 10.4 mph - N/A   Clear
11:15 AM 62.4 °F 45.5 °F 54% 30.08 in 10.0 mi SW 9.2 mph - N/A   Clear
11:35 AM 63.5 °F 45.1 °F 51% 30.07 in 10.0 mi SW 10.4 mph - N/A   Clear
11:55 AM 64.8 °F 46.4 °F 51% 30.07 in 10.0 mi SW 10.4 mph - N/A   Clear
12:15 PM 65.7 °F 46.0 °F 49% 30.06 in 10.0 mi SW 11.5 mph 17.3 mph N/A   Clear
12:35 PM 66.0 °F 45.7 °F 48% 30.05 in 10.0 mi SW 10.4 mph 18.4 mph N/A   Clear
12:55 PM 66.4 °F 46.6 °F 49% 30.05 in 10.0 mi SW 10.4 mph - N/A   Clear
1:15 PM 65.5 °F 45.7 °F 49% 30.04 in 10.0 mi WSW 10.4 mph 17.3 mph N/A   Clear
1:35 PM 66.0 °F 45.5 °F 48% 30.02 in 10.0 mi WSW 9.2 mph - N/A   Clear
1:55 PM 68.4 °F 46.0 °F 45% 30.01 in 10.0 mi SW 13.8 mph 19.6 mph N/A   Clear
2:15 PM 68.0 °F 45.0 °F 43% 30.01 in 10.0 mi SW 11.5 mph 18.4 mph N/A   Clear
2:35 PM 68.5 °F 46.0 °F 44% 30.00 in 10.0 mi WSW 10.4 mph 16.1 mph N/A   Clear
2:55 PM 68.0 °F 45.7 °F 45% 30.00 in 10.0 mi WSW 11.5 mph 17.3 mph N/A   Clear
3:15 PM 68.2 °F 45.3 °F 44% 29.99 in 10.0 mi SW 11.5 mph - N/A   Clear
3:35 PM 69.1 °F 45.3 °F 42% 29.99 in 10.0 mi WSW 12.7 mph 17.3 mph N/A   Clear
3:55 PM 67.1 °F 45.9 °F 46% 29.99 in 10.0 mi SSW 4.6 mph - N/A   Clear
4:15 PM 66.4 °F 46.0 °F 48% 29.98 in 10.0 mi SSW 8.1 mph - N/A   Clear
4:35 PM 65.8 °F 46.4 °F 49% 29.98 in 10.0 mi SW 5.8 mph - N/A   Clear
4:55 PM 65.7 °F 46.8 °F 50% 29.98 in 10.0 mi SW 5.8 mph - N/A   Clear
5:15 PM 64.9 °F 48.0 °F 54% 29.99 in 10.0 mi SW 3.5 mph - N/A   Clear
5:35 PM 64.6 °F 48.9 °F 57% 29.98 in 10.0 mi Calm Calm - N/A   Clear
5:55 PM 64.2 °F 49.1 °F 58% 29.98 in 10.0 mi Calm Calm - N/A   Clear
6:15 PM 63.7 °F 49.6 °F 60% 29.99 in 10.0 mi SW 3.5 mph - N/A   Clear
6:35 PM 62.6 °F 49.5 °F 62% 29.99 in 10.0 mi Calm Calm - N/A   Clear
6:55 PM 62.1 °F 50.0 °F 65% 29.98 in 10.0 mi Calm Calm - N/A   Clear
7:15 PM 61.7 °F 49.6 °F 65% 29.97 in 10.0 mi South 3.5 mph - N/A   Clear
7:35 PM 61.2 °F 49.8 °F 66% 29.97 in 10.0 mi Calm Calm - N/A   Clear
7:55 PM 60.1 °F 50.2 °F 70% 29.98 in 10.0 mi SSW 3.5 mph - N/A   Clear
8:15 PM 60.3 °F 50.0 °F 69% 29.97 in 10.0 mi Calm Calm - N/A   Clear
8:35 PM 60.3 °F 49.8 °F 68% 29.97 in 10.0 mi Calm Calm - N/A   Scattered Clouds
8:55 PM 58.6 °F 50.5 °F 74% 29.98 in 10.0 mi Calm Calm - N/A   Scattered Clouds
9:15 PM 58.6 °F 50.4 °F 74% 29.98 in 10.0 mi Calm Calm - N/A   Overcast
9:35 PM 57.7 °F 51.4 °F 79% 29.99 in 10.0 mi WSW 4.6 mph - N/A   Light Drizzle
9:55 PM 57.4 °F 51.1 °F 79% 30.00 in 10.0 mi West 5.8 mph - N/A   Overcast
10:15 PM 57.7 °F 51.6 °F 80% 30.01 in 10.0 mi WSW 4.6 mph - N/A Rain Rain
10:35 PM 56.3 °F 52.0 °F 85% 30.00 in 10.0 mi West 3.5 mph - N/A Rain Light Rain
10:55 PM 55.4 °F 51.8 °F 88% 30.00 in 10.0 mi WNW 4.6 mph - 0.01 in Rain Light Rain
11:15 PM 54.7 °F 52.5 °F 92% 30.00 in 10.0 mi Calm Calm - 0.01 in Rain Light Rain
11:35 PM 54.7 °F 53.1 °F 94% 30.01 in 10.0 mi Calm Calm - 0.01 in Rain Light Rain
11:55 PM 54.5 °F 53.1 °F 95% 30.01 in 7.0 mi Calm Calm - 0.02 in Rain Rain